• In Spain
  • List of Countries
  • For 7 days
  • Water Temperature
  • Satellite Maps
  • Weather Map
  • Weather Widgets
  • user-avatar
    Login

    Hourly Weather Ashtarak

    Today, 19 October, Friday

    Time Temperature Precipitation Wind Pressure Humidity
    00:00 +12°C° 0 mm 1 mps 660 mmHg 66%
    01:00 +11°C° 0 mm 1 mps 660 mmHg 68%
    02:00 +11°C° 0 mm 1 mps 660 mmHg 71%
    03:00 +11°C° 0 mm 1 mps 660 mmHg 73%
    04:00 +10°C° 0 mm 1 mps 660 mmHg 74%
    05:00 +10°C° 0 mm 1 mps 660 mmHg 74%
    06:00 +10°C° 0 mm 1 mps 660 mmHg 75%
    07:00 +12°C° 0 mm 1 mps 660 mmHg 64%
    08:00 +14°C° 0 mm 1 mps 661 mmHg 54%
    09:00 +16°C° 0 mm 1 mps 662 mmHg 43%
    10:00 +19°C° 0 mm 1 mps 662 mmHg 39%
    11:00 +20°C° 0 mm 1 mps 662 mmHg 34%
    12:00 +20°C° 0 mm 2 mps 661 mmHg 29%
    13:00 +20°C° 0 mm 2 mps 661 mmHg 29%
    14:00 +20°C° 0 mm 2 mps 661 mmHg 28%
    15:00 +21°C° 0 mm 2 mps 661 mmHg 27%
    16:00 +19°C° 0 mm 1 mps 660 mmHg 33%
    17:00 +16°C° 0 mm 1 mps 660 mmHg 38%
    18:00 +14°C° 0 mm 1 mps 659 mmHg 44%
    19:00 +14°C° 0 mm 1 mps 659 mmHg 46%
    20:00 +14°C° 0 mm 1 mps 660 mmHg 48%
    21:00 +13°C° 0 mm 1 mps 660 mmHg 50%
    22:00 +13°C° 0 mm 1 mps 660 mmHg 50%
    23:00 +12°C° 0 mm 1 mps 660 mmHg 51%

    Tomorrow, 20 October, Saturday

    Time Temperature Precipitation Wind Pressure Humidity
    00:00 +12°C° 0 mm 1 mps 660 mmHg 51%
    01:00 +12°C° 0.1 mm 1 mps 659 mmHg 50%
    02:00 +12°C° 0.1 mm 1 mps 659 mmHg 50%
    03:00 +11°C° 0.1 mm 1 mps 659 mmHg 49%
    04:00 +11°C° 0.1 mm 1 mps 659 mmHg 49%
    05:00 +11°C° 0.1 mm 1 mps 659 mmHg 49%
    06:00 +11°C° 0.1 mm 1 mps 659 mmHg 49%
    07:00 +13°C° 0 mm 1 mps 659 mmHg 47%
    08:00 +15°C° 0 mm 1 mps 660 mmHg 45%
    09:00 +17°C° 0 mm 2 mps 660 mmHg 44%
    10:00 +18°C° 0 mm 2 mps 660 mmHg 42%
    11:00 +19°C° 0 mm 2 mps 660 mmHg 39%
    12:00 +20°C° 0 mm 2 mps 660 mmHg 37%
    13:00 +20°C° 0.1 mm 2 mps 660 mmHg 37%
    14:00 +20°C° 0.1 mm 2 mps 659 mmHg 37%
    15:00 +21°C° 0.1 mm 2 mps 659 mmHg 36%
    16:00 +19°C° 0.2 mm 2 mps 659 mmHg 41%
    17:00 +17°C° 0.2 mm 2 mps 658 mmHg 46%
    18:00 +15°C° 0.2 mm 1 mps 658 mmHg 51%
    19:00 +15°C° 0.2 mm 1 mps 658 mmHg 51%
    20:00 +15°C° 0.2 mm 1 mps 658 mmHg 51%
    21:00 +14°C° 0.2 mm 1 mps 658 mmHg 52%
    22:00 +14°C° 0.2 mm 1 mps 658 mmHg 53%
    23:00 +13°C° 0.2 mm 1 mps 658 mmHg 54%

    Day after tomorrow, 21 October, Sunday

    Time Temperature Precipitation Wind Pressure Humidity
    00:00 +13°C° 0.2 mm 1 mps 658 mmHg 55%
    01:00 +13°C° 0.1 mm 1 mps 657 mmHg 55%
    02:00 +13°C° 0.1 mm 1 mps 657 mmHg 56%
    03:00 +12°C° 0.1 mm 1 mps 657 mmHg 57%
    04:00 +12°C° 0.1 mm 1 mps 657 mmHg 58%
    05:00 +12°C° 0.1 mm 1 mps 657 mmHg 59%
    06:00 +12°C° 0.1 mm 1 mps 657 mmHg 59%
    07:00 +14°C° 0.1 mm 1 mps 657 mmHg 55%
    08:00 +15°C° 0.1 mm 2 mps 658 mmHg 51%
    09:00 +17°C° 0.1 mm 2 mps 658 mmHg 47%
    10:00 +18°C° 0.1 mm 2 mps 658 mmHg 45%
    11:00 +19°C° 0.1 mm 2 mps 658 mmHg 43%
    12:00 +20°C° 0.1 mm 3 mps 658 mmHg 40%
    13:00 +19°C° 0.2 mm 3 mps 658 mmHg 41%
    14:00 +19°C° 0.2 mm 3 mps 657 mmHg 41%
    15:00 +19°C° 0.2 mm 2 mps 657 mmHg 42%
    16:00 +18°C° 0.2 mm 2 mps 657 mmHg 45%
    17:00 +17°C° 0.2 mm 2 mps 657 mmHg 49%
    18:00 +15°C° 0.2 mm 2 mps 657 mmHg 53%
    19:00 +15°C° 0.1 mm 1 mps 657 mmHg 54%
    20:00 +14°C° 0.1 mm 1 mps 657 mmHg 55%
    21:00 +14°C° 0.1 mm 1 mps 657 mmHg 56%
    22:00 +14°C° 0 mm 1 mps 656 mmHg 58%
    23:00 +13°C° 0 mm 1 mps 656 mmHg 59%

    22 October, Monday

    Time Temperature Precipitation Wind Pressure Humidity
    00:00 +13°C° 0 mm 1 mps 656 mmHg 61%
    01:00 +13°C° 0.1 mm 1 mps 656 mmHg 63%
    02:00 +12°C° 0.1 mm 1 mps 656 mmHg 65%
    03:00 +12°C° 0.1 mm 1 mps 656 mmHg 68%
    04:00 +12°C° 0.2 mm 1 mps 656 mmHg 70%
    05:00 +12°C° 0.2 mm 1 mps 656 mmHg 72%
    06:00 +12°C° 0.2 mm 2 mps 656 mmHg 74%
    07:00 +13°C° 0.1 mm 2 mps 657 mmHg 69%
    08:00 +14°C° 0.1 mm 2 mps 657 mmHg 64%
    09:00 +16°C° 0.1 mm 2 mps 658 mmHg 59%
    10:00 +17°C° 0 mm 3 mps 658 mmHg 56%
    11:00 +18°C° 0 mm 3 mps 658 mmHg 52%
    12:00 +19°C° 0 mm 3 mps 658 mmHg 49%
    13:00 +19°C° 0 mm 3 mps 658 mmHg 47%
    14:00 +19°C° 0 mm 3 mps 657 mmHg 46%
    15:00 +19°C° 0 mm 3 mps 657 mmHg 45%
    16:00 +18°C° 0 mm 3 mps 657 mmHg 50%
    17:00 +16°C° 0 mm 2 mps 657 mmHg 55%
    18:00 +15°C° 0 mm 2 mps 657 mmHg 60%
    19:00 +14°C° 0 mm 2 mps 657 mmHg 61%
    20:00 +14°C° 0 mm 2 mps 657 mmHg 62%
    21:00 +14°C° 0 mm 2 mps 657 mmHg 63%
    22:00 +13°C° 0 mm 2 mps 657 mmHg 63%
    23:00 +13°C° 0 mm 2 mps 657 mmHg 63%

    23 October, Tuesday

    Time Temperature Precipitation Wind Pressure Humidity
    00:00 +12°C° 0 mm 2 mps 657 mmHg 64%
    01:00 +12°C° 0 mm 2 mps 657 mmHg 64%
    02:00 +12°C° 0 mm 2 mps 657 mmHg 65%
    03:00 +12°C° 0 mm 2 mps 657 mmHg 66%
    04:00 +10°C° 0 mm 2 mps 657 mmHg 67%
    05:00 +10°C° 0 mm 2 mps 657 mmHg 67%
    06:00 +10°C° 0 mm 2 mps 658 mmHg 67%
    07:00 +13°C° 0 mm 2 mps 658 mmHg 62%
    08:00 +13°C° 0 mm 3 mps 659 mmHg 56%
    09:00 +16°C° 0 mm 3 mps 659 mmHg 50%
    10:00 +17°C° 0 mm 3 mps 659 mmHg 48%
    11:00 +18°C° 0 mm 4 mps 659 mmHg 45%
    12:00 +19°C° 0 mm 4 mps 659 mmHg 42%
    13:00 +19°C° 0.3 mm 4 mps 659 mmHg 44%
    14:00 +18°C° 0.3 mm 3 mps 659 mmHg 47%
    15:00 +18°C° 0.3 mm 3 mps 658 mmHg 50%
    16:00 +17°C° 0.1 mm 3 mps 658 mmHg 54%
    17:00 +15°C° 0.1 mm 2 mps 658 mmHg 58%
    18:00 +14°C° 0.1 mm 2 mps 658 mmHg 62%
    19:00 +14°C° 0.2 mm 2 mps 658 mmHg 65%
    20:00 +13°C° 0.2 mm 2 mps 658 mmHg 69%
    21:00 +13°C° 0.2 mm 2 mps 658 mmHg 73%
    22:00 +13°C° 0.1 mm 2 mps 658 mmHg 74%
    23:00 +12°C° 0.1 mm 2 mps 658 mmHg 75%

    24 October, Wednesday

    Time Temperature Precipitation Wind Pressure Humidity
    00:00 +12°C° 0.1 mm 2 mps 658 mmHg 75%
    01:00 +12°C° 0.1 mm 2 mps 657 mmHg 76%
    02:00 +12°C° 0.1 mm 2 mps 657 mmHg 77%
    03:00 +12°C° 0.1 mm 2 mps 657 mmHg 78%
    04:00 +10°C° 0 mm 2 mps 657 mmHg 78%
    05:00 +10°C° 0 mm 2 mps 657 mmHg 78%
    06:00 +10°C° 0 mm 2 mps 657 mmHg 78%
    07:00 +12°C° 0 mm 3 mps 657 mmHg 72%
    08:00 +13°C° 0 mm 3 mps 657 mmHg 65%
    09:00 +15°C° 0 mm 4 mps 658 mmHg 58%
    10:00 +17°C° 0 mm 4 mps 657 mmHg 55%
    11:00 +18°C° 0 mm 4 mps 657 mmHg 52%
    12:00 +19°C° 0 mm 4 mps 657 mmHg 48%
    13:00 +19°C° 0 mm 4 mps 656 mmHg 48%
    14:00 +19°C° 0 mm 5 mps 656 mmHg 47%
    15:00 +19°C° 0 mm 5 mps 656 mmHg 46%
    16:00 +18°C° 0 mm 4 mps 655 mmHg 51%
    17:00 +16°C° 0 mm 3 mps 655 mmHg 56%
    18:00 +15°C° 0 mm 2 mps 654 mmHg 61%
    19:00 +15°C° 0 mm 2 mps 654 mmHg 61%
    20:00 +14°C° 0 mm 2 mps 654 mmHg 62%
    21:00 +14°C° 0 mm 2 mps 654 mmHg 62%
    22:00 +14°C° 0 mm 2 mps 654 mmHg 63%
    23:00 +14°C° 0 mm 2 mps 654 mmHg 65%
    Show more